Weather History for KCNM - November, 2012

Change the Weather History Date:

Sunday, November 4, 2012

  Actual Average Record
Temperature  
Mean Temperature 59 °F -  
Max Temperature 77 °F - - ()
Min Temperature 41 °F - - ()
Degree Days  
Heating Degree Days 6    
Growing Degree Days 9 (Base 50)    
Moisture  
Dew Point 38 °F    
Average Humidity 51    
Maximum Humidity 73    
Minimum Humidity 26    
Precipitation  
Precipitation 0.00 in - - ()
Sea Level Pressure  
Sea Level Pressure 30.08 in    
Wind  
Wind Speed 3 mph (SW)    
Max Wind Speed 10 mph    
Max Gust Speed -    
Visibility 10 miles    
Events      
T = Trace of Precipitation, MM = Missing Value Source: NWS Daily Summary

Daily Weather History Graph

Daily Weather History Graph

Search for Another Location

Airport or City:

Trip Planner

Search our weather history database for the weather conditions in past years. The results will help you decide how hot, cold, wet, or windy it might be!

Date:

Astronomy

Nov. 04, 2012 Rise Set
Actual Time 6:17 AM MST 5:03 PM MST
Civil Twilight 5:51 AM MST 5:29 PM MST
Nautical Twilight 5:22 AM MST 5:58 PM MST
Astronomical Twilight 4:53 AM MST 6:27 PM MST
Moon 9:46 PM MST (11/4) 10:58 AM MST (11/4)
Length of Visible Light 11h 37m
Length of Day
10h 46m
Waning Gibbous, 71% of the Moon is Illuminated
Nov 4
Waning Gibbous
Nov 6
Last Quarter
Nov 13
New
Nov 20
First Quarter
Nov 28
Full

Hourly Weather History & Observations

Time (MST) Temp. Windchill Dew Point Humidity Pressure Visibility Wind Dir Wind Speed Gust Speed Precip Events Conditions
12:53 AM 46.0 °F - 34.0 °F 63% 30.12 in 10.0 mi Calm Calm - N/A   Clear
1:53 AM 44.1 °F 42.5 °F 34.0 °F 68% 30.12 in 10.0 mi NNW 3.5 mph - N/A   Clear
1:53 AM 43.0 °F 40.3 °F 34.0 °F 71% 30.12 in 10.0 mi West 4.6 mph - N/A   Clear
2:53 AM 42.1 °F 39.2 °F 33.1 °F 70% 30.12 in 10.0 mi West 4.6 mph - N/A   Clear
3:53 AM 42.1 °F 39.2 °F 34.0 °F 73% 30.12 in 10.0 mi West 4.6 mph - N/A   Clear
4:53 AM 41.0 °F 39.0 °F 33.1 °F 73% 30.13 in 10.0 mi WNW 3.5 mph - N/A   Clear
5:53 AM 41.0 °F - 33.1 °F 73% 30.15 in 10.0 mi Calm Calm - N/A   Clear
6:53 AM 41.0 °F - 33.1 °F 73% 30.17 in 10.0 mi Calm Calm - N/A   Clear
7:53 AM 50.0 °F - 35.1 °F 57% 30.17 in 10.0 mi Calm Calm - N/A   Clear
8:53 AM 55.9 °F - 37.9 °F 51% 30.15 in 10.0 mi Calm Calm - N/A   Clear
9:53 AM 59.0 °F - 41.0 °F 51% 30.16 in 10.0 mi Calm Calm - N/A   Clear
10:53 AM 64.9 °F - 43.0 °F 45% 30.13 in 10.0 mi Variable 3.5 mph - N/A   Clear
11:53 AM 70.0 °F - 43.0 °F 38% 30.08 in 10.0 mi South 8.1 mph - N/A   Clear
12:53 PM 73.0 °F - 42.1 °F 33% 30.04 in 10.0 mi SSE 8.1 mph - N/A   Clear
1:53 PM 75.0 °F - 41.0 °F 29% 30.01 in 10.0 mi South 4.6 mph - N/A   Clear
2:53 PM 77.0 °F - 39.9 °F 26% 30.00 in 10.0 mi Calm Calm - N/A   Clear
3:53 PM 75.9 °F - 39.9 °F 27% 29.99 in 10.0 mi SE 8.1 mph - N/A   Clear
4:53 PM 70.0 °F - 41.0 °F 35% 30.01 in 10.0 mi SSE 4.6 mph - N/A   Clear
5:53 PM 63.0 °F - 39.9 °F 43% 30.04 in 10.0 mi South 10.4 mph - N/A   Clear
6:53 PM 63.0 °F - 41.0 °F 45% 30.05 in 10.0 mi South 9.2 mph - N/A   Clear
7:53 PM 61.0 °F - 39.9 °F 46% 30.03 in 10.0 mi South 9.2 mph - N/A   Clear
8:53 PM 57.9 °F - 37.9 °F 47% 30.04 in 10.0 mi West 4.6 mph - N/A   Clear
9:53 PM 54.0 °F - 36.0 °F 51% 30.04 in 10.0 mi SSW 4.6 mph - N/A   Clear
10:53 PM 53.1 °F - 33.1 °F 47% 30.03 in 10.0 mi WNW 3.5 mph - N/A   Clear